Weather Roundup
Issued by NWS Chicago, IL

Home | Current Version | Previous Version | Graphics & Text | Print | Product List | Glossary On
Versions: 1 2 3 4 5 6 7 8 9 10 11 12 13 14 15 16 17 18 19 20 21 22 23 24 25 26 27 28 29 30 31 32 33 34 35 36 37 38 39 40 41 42 43 44 45 46 47 48 49 50
000
NZUS59 KLOT 242003
HRRLOT

CHICAGO AREA WEATHER ROUNDUP
NATIONAL WEATHER SERVICE CHICAGO/ROMEOVILLE IL
200 PM CST FRI NOV 24 2017

NOTE: "FAIR" INDICATES FEW OR NO CLOUDS BELOW 12,000 FEET WITH NO
SIGNIFICANT WEATHER AND/OR OBSTRUCTIONS TO VISIBILITY.

* THESE STATIONS ARE NOT UNDER NWS QUALITY CONTROL. THEY ALSO MAY NOT
  REPORT WEATHER SUCH AS PRECIPITATION OR FOG.

ILZ005-006-012>014-019>023-242100-
NORTHEAST ILLINOIS

CITY           SKY/WX    TMP DP  RH WIND       PRES   REMARKS
OHARE          MOSUNNY   62  38  40 S23G31    29.49F
MIDWAY         NOT AVBL
AURORA         SUNNY     63  40  42 S18G31    29.50F
LANSING*       SUNNY     59  42  52 S23G30    29.57F
JOLIET*        SUNNY     63  40  42 S18G25    29.53F
WAUKEGAN       SUNNY     62  39  42 S23G31    29.45F
DUPAGE AIRPORT SUNNY     61  40  45 S20G35    29.49F
WHEELING       SUNNY     64  39  39 S24       29.50F
KANKAKEE*      SUNNY     59  38  46 S21G30    29.59F
MORRIS*        SUNNY     63  39  42 S23G29    29.52F
LEWIS AIRPORT* SUNNY     61  40  45 S18G30    29.53F
NORTHERLY ISL    N/A     59  35  40 S20         N/A
$$

WIZ051-052-058>065-066-070>072-242100-
SOUTHEAST WISCONSIN

CITY           SKY/WX    TMP DP  RH WIND       PRES   REMARKS
MILWAUKEE      MOSUNNY   64  39  39 S21G29    29.42F
KENOSHA*       SUNNY     63  38  39 SW21G31   29.44F
RACINE*        SUNNY     63  38  39 S18G36    29.44F
WAUKESHA       SUNNY     61  36  39 S18G28    29.41F
WEST BEND      SUNNY     63  34  34 SW23G31   29.36F
$$

INZ001>003-010>013-019-020-242100-
NORTHWEST INDIANA

CITY           SKY/WX    TMP DP  RH WIND       PRES   REMARKS
GARY*          SUNNY     63  32  31 S12G26    29.57F
MICHIGAN CITY* NOT AVBL
RENSSELAER*    NOT AVBL
VALPARAISO     SUNNY     61  37  41 S15G25    29.60F
$$

LMZ740>746-242100-
SOUTHERN LAKE MICHIGAN

STATION/POSITION TIME  SKY/WX   TEMP WIND        PRES    VSBY
                                AIR  DIR/SP/G
                 (UTC)          (F)  (DEG/KT/KT) (MB)    (MI)
HARRISON CRIB    1940            58  200/ 28/ 31   N/A
BURNHAM HARBOR   2000            60  190/ 13/ 24   N/A
CALUMET HARBOR   1930            58  170/ 18/ 23 1000.1F
BURNS HARBOR     1940            58  180/ 22/ 28 1002.0F
MICHIGAN CITY    1940            56  170/ 17/ 22   N/A
$$

ABBREVIATIONS USED IN REMARKS
   TC - TEMPERATURE IN CELSIUS
  WCI - WIND CHILL INDEX
   HX - HEAT INDEX
  VSB - VISIBILITY
$$




USA.gov is the U.S. government's official web portal to all federal, state and local government web resources and services.